WZZ1XS LHBP-LUKK

Flight info

Callsign WZZ1XS
Flight time 1h 6m
Altitude 37000
Route VETIK DCT BADOR DCT BUSES
Aircraft A21N/M-SDE1E2E3FGIJ1J4RWXY/LB1

Departure

Time 2026-05-08 12:58
Airport Budapest Liszt Ferenc International Airport (LHBP)

Arrival

Time 2026-05-08 14:04
Airport Chişinău International Airport (LUKK)
Time Latitude Longitude Altitude Speed Heading
2026-05-08 12:24 47.43510 19.26478 463 ft 0 kts 222°
2026-05-08 12:50 47.43517 19.26486 462 ft 4 kts 225°
2026-05-08 12:50 47.43533 19.26517 463 ft 4 kts 247°
2026-05-08 12:50 47.43536 19.26552 463 ft 4 kts 290°
2026-05-08 12:50 47.43530 19.26568 458 ft 1 kts 312°
2026-05-08 12:53 47.43531 19.26567 461 ft 1 kts 312°
2026-05-08 12:53 47.43543 19.26548 462 ft 4 kts 312°
2026-05-08 12:53 47.43571 19.26502 463 ft 8 kts 312°
2026-05-08 12:53 47.43616 19.26430 463 ft 11 kts 312°
2026-05-08 12:54 47.43670 19.26327 463 ft 14 kts 296°
2026-05-08 12:54 47.43677 19.26173 463 ft 16 kts 265°
2026-05-08 12:54 47.43707 19.26020 463 ft 13 kts 310°
2026-05-08 12:54 47.43722 19.25895 463 ft 15 kts 230°
2026-05-08 12:55 47.43642 19.25786 463 ft 17 kts 222°
2026-05-08 12:55 47.43550 19.25661 463 ft 19 kts 222°
2026-05-08 12:55 47.43448 19.25528 463 ft 20 kts 222°
2026-05-08 12:55 47.43340 19.25381 463 ft 22 kts 223°
2026-05-08 12:56 47.43224 19.25227 463 ft 23 kts 222°
2026-05-08 12:56 47.43120 19.25087 463 ft 15 kts 222°
2026-05-08 12:56 47.43079 19.24975 463 ft 11 kts 302°
2026-05-08 12:56 47.43100 19.24938 463 ft 0 kts 312°
2026-05-08 12:57 47.43105 19.24931 463 ft 11 kts 312°
2026-05-08 12:57 47.43345 19.24544 458 ft 89 kts 312°
2026-05-08 12:57 47.43904 19.23642 461 ft 148 kts 312°
2026-05-08 12:57 47.44667 19.22410 803 ft 164 kts 313°
2026-05-08 12:58 47.45438 19.21157 1545 ft 163 kts 311°
2026-05-08 12:58 47.46228 19.19838 2053 ft 179 kts 311°
2026-05-08 12:58 47.47107 19.18411 2660 ft 196 kts 311°
2026-05-08 12:58 47.48069 19.16850 3350 ft 219 kts 312°
2026-05-08 12:59 47.48829 19.15762 3716 ft 240 kts 319°
2026-05-08 12:59 47.50649 19.13562 4716 ft 265 kts 320°
2026-05-08 12:59 47.51623 19.12397 5397 ft 268 kts 320°
2026-05-08 12:59 47.53078 19.10641 6454 ft 271 kts 320°
2026-05-08 13:00 47.54550 19.08871 7461 ft 274 kts 320°
2026-05-08 13:00 47.56032 19.07090 8520 ft 276 kts 320°
2026-05-08 13:00 47.57523 19.05281 9604 ft 278 kts 320°
2026-05-08 13:00 47.59036 19.03447 10485 ft 289 kts 319°
2026-05-08 13:01 47.60647 19.01481 10951 ft 311 kts 319°
2026-05-08 13:01 47.62480 18.99633 11612 ft 325 kts 333°
2026-05-08 13:01 47.64679 18.98754 12500 ft 334 kts 354°
2026-05-08 13:01 47.67001 18.99127 13405 ft 342 kts 15°
2026-05-08 13:02 47.69123 19.00776 14229 ft 350 kts 37°
2026-05-08 13:02 47.70937 19.03229 15044 ft 356 kts 43°
2026-05-08 13:02 47.72715 19.05819 15860 ft 360 kts 43°
2026-05-08 13:02 47.74530 19.08422 16691 ft 365 kts 42°
2026-05-08 13:03 47.76382 19.11041 17521 ft 369 kts 42°
2026-05-08 13:03 47.78242 19.13712 18323 ft 375 kts 45°
2026-05-08 13:03 47.79750 19.16897 18994 ft 382 kts 63°
2026-05-08 13:03 47.80543 19.20675 19642 ft 388 kts 82°
2026-05-08 13:04 47.80774 19.24698 20297 ft 393 kts 87°
2026-05-08 13:04 47.80915 19.28777 20936 ft 398 kts 87°
2026-05-08 13:04 47.81068 19.32919 21563 ft 403 kts 86°
2026-05-08 13:04 47.81244 19.37104 22195 ft 409 kts 86°
2026-05-08 13:05 47.81424 19.41353 22805 ft 414 kts 88°
2026-05-08 13:05 47.81241 19.45641 23394 ft 418 kts 102°
2026-05-08 13:05 47.80311 19.49734 23917 ft 419 kts 120°
2026-05-08 13:05 47.78670 19.53293 24394 ft 418 kts 135°
2026-05-08 13:06 47.76698 19.56490 24901 ft 421 kts 137°
2026-05-08 13:06 47.74681 19.59666 25393 ft 425 kts 137°
2026-05-08 13:06 47.72654 19.62901 25881 ft 429 kts 137°
2026-05-08 13:06 47.70627 19.66177 26363 ft 433 kts 137°
2026-05-08 13:07 47.68588 19.69498 26843 ft 437 kts 137°
2026-05-08 13:07 47.66534 19.72847 27313 ft 441 kts 137°
2026-05-08 13:07 47.64459 19.76225 27771 ft 444 kts 137°
2026-05-08 13:07 47.62370 19.79626 28205 ft 448 kts 137°
2026-05-08 13:08 47.60261 19.83046 28642 ft 451 kts 138°
2026-05-08 13:08 47.58141 19.86478 29078 ft 454 kts 138°
2026-05-08 13:08 47.56001 19.89934 29505 ft 457 kts 138°
2026-05-08 13:08 47.53844 19.93421 29926 ft 460 kts 139°
2026-05-08 13:09 47.51676 19.96926 30297 ft 463 kts 138°
2026-05-08 13:09 47.49495 20.00440 30648 ft 466 kts 138°
2026-05-08 13:09 47.47298 20.03973 31016 ft 468 kts 138°
2026-05-08 13:09 47.45093 20.07522 31371 ft 470 kts 138°
2026-05-08 13:10 47.42872 20.11088 31715 ft 472 kts 138°
2026-05-08 13:10 47.40649 20.14672 32086 ft 474 kts 137°
2026-05-08 13:10 47.38640 20.18565 32516 ft 481 kts 126°
2026-05-08 13:10 47.37186 20.23027 32940 ft 487 kts 112°
2026-05-08 13:11 47.36426 20.27911 33344 ft 491 kts 97°
2026-05-08 13:11 47.36422 20.32936 33773 ft 491 kts 83°
2026-05-08 13:11 47.36993 20.37889 34172 ft 489 kts 78°
2026-05-08 13:11 47.37666 20.42796 34528 ft 488 kts 78°
2026-05-08 13:12 47.38324 20.47706 34879 ft 487 kts 78°
2026-05-08 13:12 47.38954 20.52613 35198 ft 486 kts 79°
2026-05-08 13:12 47.39563 20.57516 35520 ft 486 kts 79°
2026-05-08 13:12 47.40166 20.62419 35812 ft 485 kts 79°
2026-05-08 13:13 47.40768 20.67319 36111 ft 485 kts 79°
2026-05-08 13:13 47.41366 20.72215 36404 ft 484 kts 80°
2026-05-08 13:13 47.41957 20.77087 36692 ft 483 kts 80°
2026-05-08 13:13 47.42546 20.81975 36963 ft 483 kts 80°
2026-05-08 13:14 47.43135 20.86862 37068 ft 482 kts 80°
2026-05-08 13:14 47.43721 20.91739 37062 ft 481 kts 80°
2026-05-08 13:14 47.44885 21.01467 37036 ft 481 kts 80°
2026-05-08 13:15 47.46041 21.11195 37031 ft 481 kts 81°
2026-05-08 13:15 47.47188 21.20925 37035 ft 481 kts 81°
2026-05-08 13:16 47.48324 21.30658 37040 ft 480 kts 81°
2026-05-08 13:16 47.49459 21.40388 37046 ft 480 kts 81°
2026-05-08 13:17 47.50579 21.50128 37051 ft 480 kts 81°
2026-05-08 13:17 47.51695 21.59864 37056 ft 480 kts 81°
2026-05-08 13:18 47.52618 21.69630 37043 ft 478 kts 92°
2026-05-08 13:18 47.52013 21.79392 37052 ft 476 kts 99°
2026-05-08 13:19 47.51286 21.89138 37045 ft 477 kts 98°
2026-05-08 13:19 47.50625 21.98892 37044 ft 477 kts 98°
2026-05-08 13:20 47.49965 22.08647 37040 ft 477 kts 98°
2026-05-08 13:20 47.49294 22.18391 37038 ft 476 kts 98°
2026-05-08 13:21 47.48615 22.28133 37035 ft 476 kts 98°
2026-05-08 13:21 47.47930 22.37870 37038 ft 476 kts 98°
2026-05-08 13:22 47.47238 22.47604 37039 ft 476 kts 98°
2026-05-08 13:22 47.46535 22.57334 37040 ft 476 kts 98°
2026-05-08 13:23 47.45824 22.67065 37045 ft 476 kts 99°
2026-05-08 13:23 47.45103 22.76797 37043 ft 476 kts 99°
2026-05-08 13:24 47.44374 22.86516 37047 ft 476 kts 99°
2026-05-08 13:24 47.43638 22.96247 37045 ft 476 kts 99°
2026-05-08 13:25 47.42941 23.05976 37043 ft 477 kts 97°
2026-05-08 13:25 47.42435 23.15742 37038 ft 476 kts 100°
2026-05-08 13:26 47.41465 23.25406 37042 ft 476 kts 101°
2026-05-08 13:26 47.40617 23.35092 37047 ft 476 kts 99°
2026-05-08 13:27 47.39842 23.44805 37041 ft 476 kts 99°
2026-05-08 13:27 47.39061 23.54502 37038 ft 476 kts 99°
2026-05-08 13:28 47.38269 23.64197 37039 ft 476 kts 100°
2026-05-08 13:28 47.37468 23.73892 37048 ft 476 kts 100°
2026-05-08 13:29 47.36660 23.83581 37038 ft 476 kts 100°
2026-05-08 13:29 47.35843 23.93271 37038 ft 476 kts 100°
2026-05-08 13:30 47.35018 24.02950 37036 ft 476 kts 100°
2026-05-08 13:30 47.34185 24.12624 37043 ft 476 kts 100°
2026-05-08 13:31 47.33343 24.22303 37037 ft 476 kts 100°
2026-05-08 13:31 47.32493 24.31980 37036 ft 476 kts 100°
2026-05-08 13:32 47.31611 24.41651 37034 ft 475 kts 102°
2026-05-08 13:32 47.30461 24.51231 37040 ft 475 kts 102°
2026-05-08 13:33 47.29513 24.60810 37041 ft 476 kts 100°
2026-05-08 13:33 47.28635 24.70471 37048 ft 476 kts 100°
2026-05-08 13:34 47.27910 24.80165 37058 ft 477 kts 97°
2026-05-08 13:34 47.27224 24.89858 37042 ft 474 kts 100°
2026-05-08 13:35 47.26337 24.99497 37037 ft 476 kts 101°
2026-05-08 13:35 47.25417 25.09135 37037 ft 476 kts 101°
2026-05-08 13:36 47.24495 25.18770 37035 ft 475 kts 101°
2026-05-08 13:36 47.23567 25.28382 37028 ft 475 kts 101°
2026-05-08 13:37 47.22635 25.37994 37029 ft 474 kts 101°
2026-05-08 13:37 47.21692 25.47587 37022 ft 474 kts 101°
2026-05-08 13:38 47.20748 25.57168 37022 ft 473 kts 101°
2026-05-08 13:38 47.19795 25.66753 37021 ft 474 kts 101°
2026-05-08 13:39 47.18841 25.76272 36375 ft 468 kts 101°
2026-05-08 13:39 47.18362 25.81003 35764 ft 468 kts 101°
2026-05-08 13:39 47.17879 25.85738 35176 ft 468 kts 101°
2026-05-08 13:40 47.17395 25.90463 34621 ft 468 kts 101°
2026-05-08 13:40 47.16910 25.95184 33958 ft 468 kts 101°
2026-05-08 13:40 47.16416 25.99951 32924 ft 474 kts 101°
2026-05-08 13:40 47.15921 26.04727 32236 ft 472 kts 101°
2026-05-08 13:41 47.15432 26.09475 31634 ft 469 kts 101°
2026-05-08 13:41 47.15104 26.12667 31227 ft 466 kts 101°
2026-05-08 13:41 47.14615 26.17352 30630 ft 463 kts 101°
2026-05-08 13:41 47.14124 26.22006 30030 ft 459 kts 101°
2026-05-08 13:42 47.13636 26.26626 29347 ft 456 kts 101°
2026-05-08 13:42 47.13152 26.31211 28701 ft 453 kts 101°
2026-05-08 13:42 47.12669 26.35759 28045 ft 449 kts 101°
2026-05-08 13:42 47.12186 26.40277 27416 ft 446 kts 101°
2026-05-08 13:43 47.11705 26.44758 26798 ft 442 kts 101°
2026-05-08 13:43 47.11225 26.49199 26199 ft 439 kts 101°
2026-05-08 13:43 47.10747 26.53616 25599 ft 436 kts 101°
2026-05-08 13:43 47.10271 26.57993 25024 ft 433 kts 101°
2026-05-08 13:44 47.09932 26.62355 24517 ft 428 kts 95°
2026-05-08 13:44 47.09652 26.66649 24226 ft 417 kts 100°
2026-05-08 13:44 47.09119 26.70776 23889 ft 408 kts 103°
2026-05-08 13:44 47.08585 26.74844 23385 ft 404 kts 101°
2026-05-08 13:45 47.08141 26.78885 22946 ft 398 kts 101°
2026-05-08 13:45 47.07712 26.82880 22388 ft 395 kts 101°
2026-05-08 13:45 47.07280 26.86845 21809 ft 393 kts 101°
2026-05-08 13:45 47.06819 26.90782 21288 ft 389 kts 102°
2026-05-08 13:46 47.06311 26.94661 20798 ft 386 kts 102°
2026-05-08 13:46 47.05826 26.98511 20341 ft 381 kts 102°
2026-05-08 13:46 47.05371 27.02319 19896 ft 377 kts 101°
2026-05-08 13:46 47.04935 27.06087 19455 ft 373 kts 101°
2026-05-08 13:47 47.04509 27.09812 19010 ft 369 kts 101°
2026-05-08 13:47 47.04087 27.13508 18594 ft 365 kts 101°
2026-05-08 13:47 47.03670 27.17159 18183 ft 361 kts 101°
2026-05-08 13:47 47.03257 27.20769 17735 ft 357 kts 101°
2026-05-08 13:48 47.02784 27.24305 17298 ft 351 kts 107°
2026-05-08 13:48 47.02111 27.27725 16880 ft 347 kts 108°
2026-05-08 13:48 47.01515 27.31124 16501 ft 343 kts 105°
2026-05-08 13:48 47.01015 27.34515 16131 ft 338 kts 103°
2026-05-08 13:49 47.00574 27.37872 15789 ft 334 kts 102°
2026-05-08 13:49 47.00165 27.41194 15444 ft 331 kts 101°
2026-05-08 13:49 46.99842 27.44536 15136 ft 330 kts 96°
2026-05-08 13:49 46.99624 27.47871 14789 ft 330 kts 97°
2026-05-08 13:50 46.99408 27.51226 14438 ft 331 kts 96°
2026-05-08 13:50 46.99163 27.54582 14085 ft 332 kts 98°
2026-05-08 13:50 46.98852 27.57938 13710 ft 333 kts 99°
2026-05-08 13:50 46.98498 27.61295 13309 ft 333 kts 100°
2026-05-08 13:51 46.98122 27.64648 12929 ft 334 kts 101°
2026-05-08 13:51 46.97734 27.67988 12567 ft 332 kts 101°
2026-05-08 13:51 46.97346 27.71290 12208 ft 326 kts 101°
2026-05-08 13:51 46.96960 27.74544 11848 ft 322 kts 101°
2026-05-08 13:52 46.96577 27.77750 11484 ft 318 kts 101°
2026-05-08 13:52 46.96198 27.80921 11135 ft 314 kts 101°
2026-05-08 13:52 46.95821 27.84054 10787 ft 311 kts 101°
2026-05-08 13:52 46.95447 27.87158 10431 ft 308 kts 102°
2026-05-08 13:53 46.95075 27.90238 10102 ft 305 kts 102°
2026-05-08 13:53 46.94704 27.93274 9765 ft 302 kts 102°
2026-05-08 13:53 46.94337 27.96274 9395 ft 299 kts 102°
2026-05-08 13:53 46.93971 27.99264 9049 ft 299 kts 102°
2026-05-08 13:54 46.93605 28.02251 8711 ft 298 kts 102°
2026-05-08 13:54 46.93239 28.05236 8386 ft 297 kts 102°
2026-05-08 13:54 46.92876 28.08188 8055 ft 293 kts 102°
2026-05-08 13:54 46.92578 28.11141 7756 ft 294 kts 96°
2026-05-08 13:55 46.92525 28.14099 7442 ft 293 kts 92°
2026-05-08 13:55 46.92513 28.17107 7105 ft 293 kts 92°
2026-05-08 13:55 46.92481 28.23022 6411 ft 289 kts 92°
2026-05-08 13:56 46.92460 28.25947 6051 ft 286 kts 93°
2026-05-08 13:56 46.92436 28.28846 5710 ft 284 kts 93°
2026-05-08 13:56 46.92412 28.31725 5390 ft 282 kts 93°
2026-05-08 13:56 46.92386 28.34591 5072 ft 282 kts 94°
2026-05-08 13:57 46.92360 28.37447 4741 ft 279 kts 94°
2026-05-08 13:57 46.92331 28.40270 4395 ft 277 kts 94°
2026-05-08 13:57 46.92302 28.43074 4083 ft 273 kts 94°
2026-05-08 13:57 46.92272 28.45833 3776 ft 270 kts 94°
2026-05-08 13:58 46.92244 28.48582 3494 ft 268 kts 93°
2026-05-08 13:58 46.92222 28.51239 3430 ft 254 kts 94°
2026-05-08 13:58 46.92199 28.53739 3453 ft 239 kts 94°
2026-05-08 13:58 46.92175 28.56103 3432 ft 226 kts 94°
2026-05-08 13:59 46.92152 28.58315 3430 ft 208 kts 95°
2026-05-08 13:59 46.92132 28.60302 3473 ft 183 kts 95°
2026-05-08 13:59 46.92105 28.62099 3502 ft 179 kts 96°
2026-05-08 13:59 46.92127 28.63932 3453 ft 181 kts 92°
2026-05-08 14:00 46.92197 28.65775 3343 ft 181 kts 90°
2026-05-08 14:00 46.92253 28.67593 3225 ft 178 kts 92°
2026-05-08 14:00 46.92295 28.69390 3104 ft 176 kts 93°
2026-05-08 14:00 46.92332 28.71193 2964 ft 177 kts 91°
2026-05-08 14:01 46.92369 28.72977 2796 ft 175 kts 92°
2026-05-08 14:01 46.92405 28.74720 2579 ft 166 kts 92°
2026-05-08 14:01 46.92439 28.76281 2360 ft 142 kts 94°
2026-05-08 14:01 46.92467 28.77731 2164 ft 141 kts 94°
2026-05-08 14:02 46.92495 28.79153 1979 ft 139 kts 92°
2026-05-08 14:02 46.92523 28.80551 1799 ft 138 kts 94°
2026-05-08 14:02 46.92552 28.81964 1642 ft 140 kts 94°
2026-05-08 14:02 46.92581 28.83384 1454 ft 139 kts 95°
2026-05-08 14:03 46.92610 28.84774 1282 ft 138 kts 93°
2026-05-08 14:03 46.92643 28.86177 1108 ft 138 kts 94°
2026-05-08 14:03 46.92669 28.87561 906 ft 134 kts 94°
2026-05-08 14:03 46.92694 28.88928 718 ft 137 kts 92°
2026-05-08 14:04 46.92732 28.90325 508 ft 137 kts 94°
2026-05-08 14:04 46.92757 28.91703 417 ft 127 kts 96°
2026-05-08 14:04 46.92772 28.92687 413 ft 55 kts 88°
2026-05-08 14:04 46.92780 28.93126 413 ft 40 kts 88°
2026-05-08 14:05 46.92791 28.93382 414 ft 17 kts 61°
2026-05-08 14:05 46.92902 28.93417 410 ft 13 kts 357°
2026-05-08 14:05 46.92980 28.93413 412 ft 12 kts
2026-05-08 14:05 46.93069 28.93425 415 ft 14 kts
2026-05-08 14:06 46.93081 28.93427 415 ft 0 kts
2026-05-08 14:07 46.93083 28.93427 415 ft 1 kts
2026-05-08 14:07 46.93113 28.93435 416 ft 8 kts 12°
2026-05-08 14:07 46.93144 28.93505 416 ft 11 kts 94°
2026-05-08 14:07 46.93148 28.93610 415 ft 5 kts 49°
2026-05-08 14:08 46.93189 28.93618 414 ft 7 kts 318°
2026-05-08 14:08 46.93200 28.93560 414 ft 4 kts 277°
2026-05-08 14:08 46.93202 28.93536 414 ft 0 kts 277°